Location: Newark
(7.1028°S, 35.3258°W)
Time: 09:08:33
(UTC+00:00)

Vanguard 3 - Pass Details

Date: 23 February 2020
Orbit: 508 x 3262 km, 33.3° (Epoch: 28 March)

Event Time Altitude Azimuth Distance (km) Brightness Sun altitude
Rises 19:30:45 0° 310° (NW) 6,075 12.3 16.9°
Reaches altitude 10° 19:34:16 10° 311° (NW) 5,346 12.0 16.0°
Maximum altitude 19:52:00 81° 38° (NE) 3,258 10.3 11.7°
Drops below altitude 10° 20:11:37 10° 122° (ESE) 5,835 11.1 6.8°
Sets 20:15:39 0° 123° (ESE) 6,628 11.3 5.9°
